When you browse on this site, cookies collect data to enhance your experience and personalize the content and advertising you see.
Visit our Privacy Policy to learn more. By continuing to use the site, you agree to this use of cookies and data.
  • en Suisse
  • Liste des pays
  • À 7 jours
  • Température de l'eau
  • Carte météo
  • Widgets météo
  • user-avatar
    Se connecter

    Météo par heure à Dori

    Ce jour, 29 Mars, Dimanche

    Heure Température Précipitation Vent Pression Humidité
    00:00 +31°C° 0 mm 3 m/s 733 mmHg 11%
    01:00 +31°C° 0 mm 3 m/s 732 mmHg 11%
    02:00 +30°C° 0 mm 3 m/s 732 mmHg 12%
    03:00 +30°C° 0 mm 4 m/s 732 mmHg 12%
    04:00 +29°C° 0 mm 4 m/s 732 mmHg 13%
    05:00 +29°C° 0 mm 4 m/s 732 mmHg 13%
    06:00 +28°C° 0 mm 4 m/s 732 mmHg 13%
    07:00 +32°C° 0 mm 5 m/s 733 mmHg 13%
    08:00 +35°C° 0 mm 6 m/s 734 mmHg 13%
    09:00 +40°C° 0 mm 7 m/s 734 mmHg 12%
    10:00 +41°C° 0 mm 7 m/s 734 mmHg 11%
    11:00 +44°C° 0 mm 6 m/s 733 mmHg 9%
    12:00 +46°C° 0 mm 6 m/s 733 mmHg 7%
    13:00 +46°C° 0 mm 5 m/s 732 mmHg 7%
    14:00 +45°C° 0 mm 4 m/s 731 mmHg 7%
    15:00 +47°C° 0 mm 4 m/s 730 mmHg 7%
    16:00 +44°C° 0 mm 3 m/s 730 mmHg 8%
    17:00 +42°C° 0 mm 3 m/s 730 mmHg 9%
    18:00 +39°C° 0 mm 3 m/s 730 mmHg 10%
    19:00 +38°C° 0 mm 3 m/s 730 mmHg 10%
    20:00 +37°C° 0 mm 3 m/s 731 mmHg 11%
    21:00 +35°C° 0 mm 3 m/s 731 mmHg 12%
    22:00 +35°C° 0 mm 3 m/s 731 mmHg 12%
    23:00 +34°C° 0 mm 3 m/s 731 mmHg 13%

    Demain, 30 Mars, Lundi

    Heure Température Précipitation Vent Pression Humidité
    00:00 +33°C° 0 mm 3 m/s 730 mmHg 14%
    01:00 +33°C° 0 mm 3 m/s 730 mmHg 15%
    02:00 +31°C° 0 mm 3 m/s 730 mmHg 17%
    03:00 +31°C° 0 mm 3 m/s 730 mmHg 19%
    04:00 +30°C° 0 mm 4 m/s 730 mmHg 20%
    05:00 +29°C° 0 mm 4 m/s 730 mmHg 21%
    06:00 +29°C° 0 mm 5 m/s 731 mmHg 22%
    07:00 +32°C° 0 mm 6 m/s 731 mmHg 19%
    08:00 +35°C° 0 mm 7 m/s 732 mmHg 16%
    09:00 +39°C° 0 mm 8 m/s 733 mmHg 13%
    10:00 +41°C° 0 mm 7 m/s 732 mmHg 12%
    11:00 +44°C° 0 mm 7 m/s 731 mmHg 10%
    12:00 +45°C° 0 mm 6 m/s 731 mmHg 9%
    13:00 +46°C° 0 mm 5 m/s 730 mmHg 9%
    14:00 +45°C° 0 mm 4 m/s 730 mmHg 8%
    15:00 +47°C° 0 mm 4 m/s 729 mmHg 8%
    16:00 +44°C° 0 mm 3 m/s 729 mmHg 9%
    17:00 +42°C° 0 mm 3 m/s 729 mmHg 10%
    18:00 +40°C° 0 mm 3 m/s 728 mmHg 11%
    19:00 +38°C° 0 mm 3 m/s 729 mmHg 12%
    20:00 +37°C° 0 mm 4 m/s 730 mmHg 13%
    21:00 +36°C° 0 mm 4 m/s 730 mmHg 13%
    22:00 +35°C° 0 mm 4 m/s 730 mmHg 14%
    23:00 +34°C° 0 mm 4 m/s 730 mmHg 15%

    Après-demain, 31 Mars, Mardi

    Heure Température Précipitation Vent Pression Humidité
    00:00 +33°C° 0 mm 4 m/s 730 mmHg 16%
    01:00 +32°C° 0 mm 4 m/s 730 mmHg 16%
    02:00 +30°C° 0 mm 4 m/s 730 mmHg 17%
    03:00 +29°C° 0 mm 4 m/s 730 mmHg 17%
    04:00 +29°C° 0 mm 4 m/s 730 mmHg 17%
    05:00 +29°C° 0 mm 4 m/s 730 mmHg 17%
    06:00 +28°C° 0 mm 5 m/s 731 mmHg 17%
    07:00 +32°C° 0 mm 5 m/s 731 mmHg 14%
    08:00 +35°C° 0 mm 6 m/s 732 mmHg 10%
    09:00 +39°C° 0 mm 7 m/s 733 mmHg 7%
    10:00 +41°C° 0 mm 7 m/s 732 mmHg 7%
    11:00 +44°C° 0 mm 6 m/s 732 mmHg 7%
    12:00 +46°C° 0 mm 6 m/s 732 mmHg 6%
    13:00 +46°C° 0 mm 5 m/s 731 mmHg 6%
    14:00 +47°C° 0 mm 5 m/s 730 mmHg 7%
    15:00 +47°C° 0 mm 4 m/s 730 mmHg 7%
    16:00 +44°C° 0 mm 4 m/s 730 mmHg 7%
    17:00 +42°C° 0 mm 3 m/s 730 mmHg 8%
    18:00 +40°C° 0 mm 3 m/s 730 mmHg 9%
    19:00 +38°C° 0 mm 3 m/s 730 mmHg 10%
    20:00 +37°C° 0 mm 3 m/s 730 mmHg 11%
    21:00 +35°C° 0 mm 3 m/s 731 mmHg 12%
    22:00 +34°C° 0 mm 3 m/s 731 mmHg 13%
    23:00 +34°C° 0 mm 3 m/s 731 mmHg 14%

    1 Avril, Mercredi

    Heure Température Précipitation Vent Pression Humidité
    00:00 +33°C° 0 mm 3 m/s 731 mmHg 14%
    01:00 +31°C° 0 mm 3 m/s 731 mmHg 15%
    02:00 +32°C° 0 mm 4 m/s 731 mmHg 15%
    03:00 +30°C° 0 mm 4 m/s 731 mmHg 16%
    04:00 +30°C° 0 mm 4 m/s 731 mmHg 15%
    05:00 +29°C° 0 mm 5 m/s 731 mmHg 14%
    06:00 +29°C° 0 mm 5 m/s 732 mmHg 14%
    07:00 +33°C° 0 mm 6 m/s 732 mmHg 11%
    08:00 +36°C° 0 mm 7 m/s 733 mmHg 8%
    09:00 +40°C° 0 mm 8 m/s 733 mmHg 6%
    10:00 +43°C° 0 mm 7 m/s 733 mmHg 6%
    11:00 +45°C° 0 mm 6 m/s 732 mmHg 6%
    12:00 +47°C° 0 mm 5 m/s 732 mmHg 6%
    13:00 +47°C° 0 mm 5 m/s 731 mmHg 6%
    14:00 +47°C° 0 mm 4 m/s 730 mmHg 6%
    15:00 +48°C° 0 mm 4 m/s 729 mmHg 6%
    16:00 +45°C° 0 mm 3 m/s 729 mmHg 7%
    17:00 +43°C° 0 mm 3 m/s 729 mmHg 8%
    18:00 +40°C° 0 mm 2 m/s 729 mmHg 8%
    19:00 +39°C° 0 mm 3 m/s 730 mmHg 9%
    20:00 +37°C° 0 mm 4 m/s 730 mmHg 10%
    21:00 +36°C° 0 mm 4 m/s 731 mmHg 10%
    22:00 +35°C° 0 mm 5 m/s 731 mmHg 10%
    23:00 +35°C° 0 mm 5 m/s 731 mmHg 10%

    2 Avril, Jeudi

    Heure Température Précipitation Vent Pression Humidité
    00:00 +34°C° 0 mm 5 m/s 731 mmHg 10%
    01:00 +33°C° 0 mm 5 m/s 731 mmHg 9%
    02:00 +32°C° 0 mm 4 m/s 731 mmHg 9%
    03:00 +30°C° 0 mm 4 m/s 730 mmHg 8%
    04:00 +30°C° 0 mm 4 m/s 731 mmHg 8%
    05:00 +29°C° 0 mm 4 m/s 731 mmHg 8%
    06:00 +29°C° 0 mm 4 m/s 731 mmHg 8%
    07:00 +33°C° 0 mm 4 m/s 732 mmHg 7%
    08:00 +36°C° 0 mm 5 m/s 732 mmHg 6%
    09:00 +40°C° 0 mm 5 m/s 733 mmHg 5%
    10:00 +42°C° 0 mm 5 m/s 733 mmHg 5%
    11:00 +43°C° 0 mm 4 m/s 732 mmHg 4%
    12:00 +45°C° 0 mm 4 m/s 732 mmHg 4%
    13:00 +46°C° 0 mm 3 m/s 731 mmHg 4%
    14:00 +46°C° 0 mm 3 m/s 730 mmHg 4%
    15:00 +47°C° 0 mm 2 m/s 729 mmHg 4%
    16:00 +43°C° 0 mm 2 m/s 729 mmHg 6%
    17:00 +40°C° 0 mm 1 m/s 729 mmHg 7%
    18:00 +36°C° 0 mm 1 m/s 729 mmHg 8%
    19:00 +35°C° 0 mm 1 m/s 729 mmHg 9%
    20:00 +34°C° 0 mm 1 m/s 730 mmHg 9%
    21:00 +32°C° 0 mm 1 m/s 730 mmHg 10%
    22:00 +32°C° 0 mm 2 m/s 730 mmHg 10%
    23:00 +32°C° 0 mm 2 m/s 730 mmHg 9%

    3 Avril, Vendredi

    Heure Température Précipitation Vent Pression Humidité
    00:00 +33°C° 0 mm 3 m/s 730 mmHg 9%
    01:00 +33°C° 0 mm 3 m/s 730 mmHg 9%
    02:00 +31°C° 0 mm 3 m/s 729 mmHg 9%
    03:00 +31°C° 0 mm 3 m/s 729 mmHg 10%
    04:00 +30°C° 0 mm 3 m/s 729 mmHg 10%
    05:00 +29°C° 0 mm 3 m/s 729 mmHg 10%
    06:00 +29°C° 0 mm 3 m/s 730 mmHg 10%
    07:00 +33°C° 0 mm 3 m/s 730 mmHg 8%
    08:00 +36°C° 0 mm 4 m/s 731 mmHg 7%
    09:00 +40°C° 0 mm 4 m/s 731 mmHg 5%
    10:00 +42°C° 0 mm 4 m/s 731 mmHg 5%
    11:00 +44°C° 0 mm 3 m/s 731 mmHg 4%
    12:00 +46°C° 0 mm 3 m/s 730 mmHg 4%
    13:00 +46°C° 0 mm 3 m/s 730 mmHg 4%
    14:00 +47°C° 0 mm 2 m/s 729 mmHg 4%
    15:00 +47°C° 0 mm 2 m/s 728 mmHg 4%
    16:00 +45°C° 0 mm 2 m/s 728 mmHg 5%
    17:00 +42°C° 0 mm 2 m/s 728 mmHg 6%
    18:00 +40°C° 0 mm 2 m/s 728 mmHg 7%
    19:00 +38°C° 0 mm 2 m/s 728 mmHg 7%
    20:00 +37°C° 0 mm 2 m/s 729 mmHg 8%
    21:00 +35°C° 0 mm 3 m/s 729 mmHg 9%
    22:00 +34°C° 0 mm 3 m/s 729 mmHg 10%
    23:00 +34°C° 0 mm 2 m/s 729 mmHg 10%
    Voir plus